Regional Weather Roundup
Issued by NWS

Home | Current Version | Previous Version | Text Only | Print | Product List | Glossary On
Versions: 1 2 3 4 5 6 7 8 9 10 11 12 13 14 15 16 17 18 19 20 21 22 23 24 25 26 27 28 29 30 31 32 33 34 35 36 37 38 39 40 41 42 43 44 45 46 47 48 49 50
000
ASUS43 KDTX 250310
RWRMI
MICHIGAN HOURLY REGIONAL WEATHER ROUNDUP
NATIONAL WEATHER SERVICE DETROIT/PONTIAC MI
1100 PM EDT WED MAY 24 2017

NOTE: "FAIR" INDICATES FEW OR NO CLOUDS BELOW 12,000 FEET WITH NO
SIGNIFICANT WEATHER AND/OR OBSTRUCTION TO VISIBILITY.

MIZ047>049-052>055-059>063-066>070-074>076-081>083-250400-
SOUTHEAST LOWER MICHIGAN

CITY           SKY/WX    TMP DP  RH WIND       PRES   REMARKS
ADRIAN         CLOUDY    58  57  97 E13       29.47F
ANN ARBOR      CLOUDY    59  58  96 NE9       29.49F
DETROIT CITY   LGT RAIN  59  58  96 NE7       29.51F
DETROIT        CLOUDY    60  58  92 E8        29.50S
FLINT          LGT RAIN  58  57  97 NE12      29.54F

CITY           SKY/WX    TMP DP  RH WIND       PRES   REMARKS
JACKSON        LGT RAIN  59  57  93 NE8       29.49S FOG
LANSING        RAIN      60  55  83 N12       29.53F
LAPEER         NOT AVBL
MT. CLEMENS    CLOUDY    59  59 100 NE12      29.51F
PONTIAC        LGT RAIN  58  56  93 NE12      29.51S FOG
PORT HOPE        N/A     53  51  93 E6        29.61F
TRI CITIES     LGT RAIN  54  53  97 NE14      29.59F FOG
MIDLAND        NOT AVBL
$$
MIZ043>046-050>051-056>058-064>065-071>073-077>080-250400-
SOUTHWEST LOWER MICHIGAN

CITY           SKY/WX    TMP DP  RH WIND       PRES   REMARKS
BATTLE CREEK   RAIN      58  57  97 NE10      29.51S FOG
BENTON HARBOR  MOCLDY    59  56  89 VRB3      29.51S FOG
HOLLAND        CLOUDY    61  55  81 VRB6      29.54S
GRAND RAPIDS   CLOUDY    59  56  89 NE13      29.54S
KALAMAZOO      CLOUDY    59  55  87 N8        29.51F FOG
MUSKEGON       CLOUDY    63  54  72 NE8       29.56S
$$
MIZ016>042-250400-
NORTHERN LOWER MICHIGAN

CITY           SKY/WX    TMP DP  RH WIND       PRES   REMARKS
ALPENA         CLOUDY    58  51  78 NE9       29.68R
GAYLORD        CLOUDY    55  49  80 NE12      29.68S
HOUGHTON LAKE  CLOUDY    57  49  74 NE12      29.64S
MANISTEE       MOCLDY    58  53  84 NE7       29.62R
PELLSTON       CLOUDY    55  50  83 NE6       29.70F
TRAVERSE CITY  MOCLDY    52  48  86 NE3       29.64S
$$
MIZ007>008-015-250400-
EASTERN UPPER MICHIGAN

CITY           SKY/WX    TMP DP  RH WIND       PRES   REMARKS
KINROSS        CLOUDY    53  49  86 N7        29.73S
S. S. MARIE    CLOUDY    58  50  75 NE6       29.72S
MUNISING         N/A     43  41  93 N3        29.75S
$$
MIZ004>006-011>014-085-250400-
CENTRAL UPPER MICHIGAN

CITY           SKY/WX    TMP DP  RH WIND       PRES   REMARKS
ESCANABA       CLOUDY    52  47  83 N6        29.72S
MENOMINEE      PTCLDY    51  48  89 N6        29.71S
$$
MIZ001>003-009>011-084-250400-
WESTERN UPPER MICHIGAN

CITY           SKY/WX    TMP DP  RH WIND       PRES   REMARKS
IRON MOUNTAIN  CLOUDY    52  45  77 N6        29.73R
HOUGHTON       CLOUDY    44  41  89 NE3       29.77S
COPPER HARBOR    N/A     44  39  82 CALM      29.78R
IRONWOOD       CLEAR     45  43  93 CALM      29.77
$$

ABBREVIATIONS USED IN REMARKS
   TC - TEMPERATURE IN CELSIUS
  WCI - WIND CHILL INDEX
   HX - HEAT INDEX
  VSB - VISIBILITY





USA.gov is the U.S. government's official web portal to all federal, state and local government web resources and services.